Regional Weather Roundup
Issued by NWS

Home | Current Version | Previous Version | Graphics & Text | Print | Product List | Glossary On
Versions: 1 2 3 4 5 6 7 8 9 10 11 12 13 14 15 16 17 18 19 20 21 22 23 24 25 26 27
000
ASUS45 KBOU 250707
RWRCO

WEATHER ROUNDUP FOR COLORADO
NATIONAL WEATHER SERVICE DENVER/BOULDER CO
100 AM MDT SAT MAR 25 2017

NOTE: "FAIR" INDICATES FEW OR NO CLOUDS BELOW 12000 FEET WITH NO
SIGNIFICANT WEATHER AND/OR OBSTRUCTIONS TO VISIBILITY.

COZ001>005-013-030-031-250800-
...NORTHWEST COLORADO...

CITY           SKY/WX    TMP DP  RH WIND       PRES   REMARKS
CRAIG          FAIR      28  22  78 CALM      30.16S
HAYDEN         FAIR      34  19  55 E9        30.16S WCI  26
MEEKER         FAIR      30  23  75 NE5       30.17R WCI  25
MOUNT WERNER   NOT AVBL
STEAMBOAT SPGS FAIR      32  25  74 CALM      30.17R
WALDEN         NOT AVBL
$$

COZ006>008-011-250800-
...WEST CENTRAL VALLEYS...

CITY           SKY/WX    TMP DP  RH WIND       PRES   REMARKS
GRAND JUNCTION FAIR      43  28  55 E8        30.12F
MONTROSE       FAIR      40  29  64 E12       30.18F
EAGLE          FAIR      33  24  69 SE3       30.21S
RIFLE          FAIR      36  28  73 W6        30.17R
DELTA          FAIR      41  27  57 N3        30.17S
NUCLA          FAIR      37  30  75 E9        30.21S
$$

COZ017>023-064>068-250800-
...SOUTHWEST COLORADO...

CITY           SKY/WX    TMP DP  RH WIND       PRES   REMARKS
DURANGO        FAIR      32  24  72 CALM      30.17F
CORTEZ         FAIR      33  28  81 NE7       30.18S WCI  27
PAGOSA SPRINGS FAIR      34  33  96 CALM      30.23R
TELLURIDE      NOT AVBL
WOLF CREEK PAS FAIR      25  23  93 SW10      30.37R WCI  15
$$

COZ009-010-012-014-032>034-037-058>063-250800-
...CENTRAL COLORADO...

CITY           SKY/WX    TMP DP  RH WIND       PRES   REMARKS
ASPEN          FAIR      34  25  69 SE10      30.20F WCI  26
BUENA VISTA    FAIR      27  19  74 NW3       30.20S
COPPER MTN     FAIR      27  18  69 MISG      30.29S
BERTHOUD PASS  FAIR      18   7  62 N30G39    30.25S WCI  -2
COTTONWOOD PAS FAIR      36  14  41 W9G25     30.23S
GUNNISON       FAIR      30  25  81 CALM      30.25R
KREMMLING      FAIR      32  27  80 CALM      30.22S
LEADVILLE      FAIR      23  15  71 NE10      30.24R WCI  12
MONARCH PASS   FOG       23  21  93 SW17      30.39S VSB<1/4 WCI   9
SALIDA         FAIR      34  25  70 CALM      30.27S
SUNLIGHT       FAIR      27  21  80 SW10      30.30F WCI  17
WILKERSON PASS FAIR      27  18  69 W6        30.26S WCI  20
$$

COZ069>075-250800-
...SAN LUIS VALLEY/SANGRE DE CRISTO MOUNTAINS...

CITY           SKY/WX    TMP DP  RH WIND       PRES   REMARKS
ALAMOSA        FAIR      27  25  92 SW5       30.19S WCI  22
LA VETA PASS   NOT AVBL
SAGUACHE       FAIR      34  23  64 NW15      30.22S WCI  24
$$

COZ035-036-038>040-250800-
...NORTHERN COLORADO FRONT RANGE...

CITY           SKY/WX    TMP DP  RH WIND       PRES   REMARKS
DENVER INTL AP FAIR      32  28  85 S9        30.10F WCI  24
DMNS CITY PARK   N/A     37  31  81 SE8G15    30.11S
AURORA         CLEAR     35  31  86 S8        30.11F WCI  28
FRONT RANGE AP FAIR      34  32  93 S7        30.11F WCI  28
ERIE MUNI ARPT FAIR      33  31  92 CALM      30.11S
BOULDER MUN AP FAIR      37  30  75 CALM      30.10F
CENTENNIAL     FAIR      34  29  82 S7        30.11F WCI  28
BROOMFIELD     FAIR      37  32  81 CALM      30.11F
FORT COLLINS   FAIR      38  29  70 CALM      30.11F
LONGMONT       FAIR      34  28  79 W3        30.13S
$$

COZ041-046-047-076>085-087-088-250800-
...PIKES PEAK/PALMER DIVIDE AND SOUTHERN FOOTHILLS...

CITY           SKY/WX    TMP DP  RH WIND       PRES   REMARKS
COLO. SPRINGS  FAIR      32  27  81 VRB6      30.13F WCI  26
A. F. ACADEMY  FAIR      26  26  99 N8        30.13S WCI  17
SCHRIEVER AFB  FAIR      31  28  88 SW6       30.13F WCI  25
ELLICOTT         N/A    N/A N/A N/A E3        30.11F
FALCON         FAIR      28  26  92 W6        30.14F WCI  21
FORT CARSON    FAIR      35  28  75 CALM      30.12F
LIMON          FAIR      29  27  92 NW6       30.12F WCI  23
MONUMENT HILL  FAIR      28  27  93 SW6       30.14F WCI  22
TRINIDAD       FAIR      33  29  85 W10       30.13F WCI  25
$$

COZ042>045-048>051-090-091-250800-
...NORTHEAST COLORADO...

CITY           SKY/WX    TMP DP  RH WIND       PRES   REMARKS
GREELEY ARPT   FAIR      27  23  85 NW3       30.11F
AKRON          FAIR      34  30  85 W8        30.10F WCI  27
BURLINGTON     FAIR      34  32  92 NW10      30.08S WCI  26
WRAY           FAIR      36  32  87 NE10      30.07
STERLING       FAIR      32  32 100 CALM      30.10F
HOLYOKE        FAIR      37  32  81 N10       30.07F
FORT MORGAN    FAIR      34  31  88 W5        30.11F WCI  30
$$

COZ086-089-092>099-250800-
...SOUTHEAST COLORADO...

CITY           SKY/WX    TMP DP  RH WIND       PRES   REMARKS
PUEBLO         FAIR      34  30  85 CALM      30.12F
LA JUNTA       FAIR      36  32  85 W6        30.11F
LAMAR          FAIR      34  31  88 W9        30.09F WCI  27
SPRINGFIELD      N/A     31  30  96 NW9       30.09F WCI  23
$$




USA.gov is the U.S. government's official web portal to all federal, state and local government web resources and services.